N1WTL Weather Reports


time (UTC)temp
C
wind
direction
speed
KPH
gust
KPH
rain 1hr
cm
rain 24hr
cm
rain mn
cm
humidity
%
barometer
mb
20260507201518 12 254 3.2 14.5 0.00 0.00 0.00 35 1001.3
20260507200024 12 64 0.0 19.3 0.00 0.00 0.00 37 1001.3
20260507194526 12 42 3.2 9.7 0.00 0.00 0.00 37 1001.3
20260507193029 12 205 3.2 12.9 0.00 0.00 0.00 37 1001.3
20260507191528 13 31 3.2 11.3 0.00 0.00 0.00 41 1001.4
20260507190020 12 347 4.8 24.1 0.00 0.03 0.00 39 1001.3
20260507184525 12 210 1.6 12.9 0.00 0.03 0.00 42 1001.3
20260507183027 12 58 1.6 16.1 0.00 0.03 0.00 41 1001.3
20260507181528 12 256 1.6 20.9 0.00 0.03 0.00 44 1001.3
20260507180028 12 171 4.8 19.3 0.00 0.03 0.00 44 1001.6
20260507174540 12 239 1.6 16.1 0.00 0.03 0.00 44 1001.6
20260507173027 12 198 4.8 17.7 0.00 0.03 0.00 46 1001.6
20260507171508 11 93 1.6 9.7 0.00 0.03 0.00 53 1001.5
20260507170015 11 67 1.6 14.5 0.00 0.03 0.00 52 1001.7
20260507164521 11 353 3.2 19.3 0.00 0.03 0.00 57 1002.2
20260507163026 10 190 1.6 8.0 0.00 0.03 0.00 77 1002.6
20260507161527 8 212 0.0 4.8 0.00 0.03 0.00 79 1002.9
20260507160013 7 70 0.0 3.2 0.00 0.03 0.00 83 1003.0
20260507154520 7 86 0.0 3.2 0.00 0.03 0.00 86 1003.2
20260507153025 7 193 0.0 8.0 0.00 0.03 0.00 80 1003.4
20260507151524 8 21 0.0 9.7 0.00 0.03 0.00 74 1003.1
20260507150026 8 191 4.8 11.3 0.00 0.03 0.00 69 1003.1
20260507144510 8 355 0.0 4.8 0.00 0.03 0.00 70 1002.9
20260507143018 9 240 1.6 11.3 0.00 0.03 0.00 67 1002.9
20260507141524 9 77 3.2 9.7 0.00 0.03 0.00 72 1003.0
20260507140036 8 37 0.0 6.4 0.00 0.03 0.00 77 1003.1
20260507134529 8 205 0.0 8.0 0.00 0.03 0.00 75 1003.0
20260507133013 8 5 1.6 8.0 0.00 0.03 0.00 77 1003.1
20260507131533 7 217 0.0 3.2 0.00 0.03 0.00 81 1003.5
20260507130026 7 248 0.0 1.6 0.00 0.03 0.00 80 1003.5
20260507124530 7 247 0.0 1.6 0.00 0.03 0.00 86 1003.4
20260507123040 7 244 0.0 1.6 0.00 0.03 0.00 85 1003.3
20260507121513 6 245 0.0 1.6 0.00 0.03 0.00 85 1003.3
20260507120029 6 221 0.0 1.6 0.00 0.03 0.00 87 1003.3
20260507114526 6 206 0.0 1.6 0.00 0.03 0.00 91 1003.3
20260507113058 5 207 0.0 1.6 0.00 0.03 0.00 94 1003.5
20260507111532 4 206 0.0 0.0 0.00 0.03 0.00 94 1003.6
20260507110016 3 206 0.0 0.0 0.00 0.03 0.00 94 1003.8
20260507104520 3 206 0.0 0.0 0.00 0.03 0.00 94 1003.5
20260507103024 3 204 0.0 0.0 0.00 0.03 0.00 94 1003.5
20260507101527 3 204 0.0 0.0 0.00 0.03 0.00 94 1003.3
20260507100041 3 204 0.0 0.0 0.00 0.03 0.00 94 1003.2
20260507094528 3 204 0.0 0.0 0.00 0.03 0.00 94 1003.2
20260507093028 3 204 0.0 0.0 0.00 0.03 0.00 94 1003.3
20260507091529 3 204 0.0 0.0 0.00 0.03 0.00 94 1003.2
20260507090028 3 204 0.0 0.0 0.00 0.03 0.00 94 1003.4
20260507084546 3 204 0.0 0.0 0.00 0.03 0.00 93 1003.2
20260507083028 3 204 0.0 0.0 0.00 0.03 0.00 93 1003.1
20260507081522 4 204 0.0 0.0 0.00 0.03 0.00 93 1003.0
20260507080028 4 204 0.0 0.0 0.00 0.03 0.00 93 1002.9
20260507074530 4 204 0.0 0.0 0.00 0.03 0.00 94 1003.1
20260507073030 4 204 0.0 0.0 0.00 0.03 0.00 93 1003.5
20260507071535 4 204 0.0 0.0 0.00 0.03 0.00 93 1003.2
20260507070026 4 204 0.0 0.0 0.00 0.03 0.00 91 1002.9
20260507064530 5 204 0.0 0.0 0.00 0.03 0.00 91 1003.2
20260507063030 5 204 0.0 3.2 0.00 0.03 0.00 91 1003.4
20260507061535 5 219 0.0 3.2 0.00 0.03 0.00 91 1002.8
20260507060037 5 37 0.0 1.6 0.00 0.03 0.00 91 1003.0
20260507054535 5 37 0.0 1.6 0.00 0.03 0.00 91 1003.0
20260507053007 5 32 0.0 3.2 0.00 0.03 0.00 91 1002.9
20260507051512 5 354 0.0 6.4 0.00 0.03 0.00 90 1002.9
20260507050036 6 27 0.0 1.6 0.00 0.03 0.00 90 1002.9
20260507044525 6 221 0.0 8.0 0.00 0.03 0.00 90 1003.1
20260507043024 6 191 0.0 3.2 0.00 0.03 0.00 91 1003.0
20260507041527 6 59 0.0 1.6 0.00 0.03 0.00 90 1003.1
20260507040014 6 40 0.0 3.2 0.00 0.03 0.00 91 1003.0
20260507034522 6 3 0.0 1.6 0.00 0.03 0.03 91 1003.5
20260507033030 6 11 0.0 4.8 0.00 0.03 0.03 91 1003.6
20260507031532 6 39 0.0 3.2 0.00 0.03 0.03 90 1003.6
20260507030034 6 15 0.0 3.2 0.00 0.03 0.03 91 1003.4
20260507024518 7 208 1.6 4.8 0.00 0.03 0.03 91 1003.6
20260507023020 7 174 0.0 0.0 0.00 0.03 0.03 93 1003.1
20260507021543 7 174 0.0 1.6 0.00 0.03 0.03 92 1003.1
20260507020030 7 2 0.0 3.2 0.00 0.03 0.03 92 1003.0
20260507014528 7 352 0.0 1.6 0.00 0.03 0.03 92 1003.1
20260507013016 7 231 0.0 1.6 0.00 0.03 0.03 93 1002.8
20260507011528 8 58 0.0 1.6 0.00 0.03 0.03 93 1002.6
20260507010037 8 197 0.0 1.6 0.00 0.03 0.03 93 1002.7
20260507004527 8 274 0.0 1.6 0.00 0.03 0.03 93 1002.5
20260507003027 8 269 0.0 1.6 0.00 0.03 0.03 93 1002.3
20260507001519 8 342 0.0 1.6 0.00 0.03 0.03 93 1002.1
20260507000032 8 1 0.0 1.6 0.00 0.03 0.03 93 1002.0
20260506234528 8 274 0.0 0.0 0.00 0.03 0.03 93 1001.8
20260506233027 9 274 0.0 1.6 0.00 0.03 0.03 92 1001.8
20260506231528 9 274 0.0 1.6 0.00 0.03 0.03 92 1001.7
20260506230020 10 75 0.0 3.2 0.00 0.03 0.03 92 1001.5
20260506224524 10 248 3.2 9.7 0.00 0.03 0.03 91 1001.1
20260506223028 10 231 3.2 14.5 0.00 0.03 0.03 88 1001.0
20260506221530 11 247 1.6 8.0 0.00 0.03 0.03 90 1000.5
20260506220034 13 242 3.2 4.8 0.00 0.03 0.03 88 1000.4
20260506214520 13 247 0.0 1.6 0.00 0.03 0.03 92 1000.4
20260506213030 13 247 0.0 1.6 0.00 0.03 0.03 92 1000.5
20260506211529 13 247 0.0 1.6 0.00 0.03 0.03 92 1000.5
20260506210035 13 247 0.0 0.0 0.00 0.08 0.03 91 1000.6
20260506204518 13 247 0.0 1.6 0.00 0.08 0.03 91 1000.6
20260506203027 13 247 0.0 1.6 0.00 0.08 0.03 92 1000.7